EHI
44 60 75 78 78 82 86 91 95 95 93 87 71 49 28 12 2 0 0 0 0 0 0 0 0 0 0 0 0 0 0 0 0 0 0 0 0 0 0 0 0 0 0
62 74 86 86 83 83 85 89 94 95 92 82 62 39 19 7 1 0 0 0 0 0 0 0 0 0 0 0 0 0 0 0 0 0 0 0 0 0 0 0 0 0 0
82 90 96 95 91 87 87 90 94 93 85 70 47 23 8 2 0 0 0 0 0 0 0 0 0 0 0 0 0 0 0 0 0 0 0 0 0 0 0 0 0 0 0
92 95 98 97 95 93 93 93 93 86 71 51 30 12 3 0 0 0 0 0 0 0 0 0 0 0 0 0 0 0 0 0 0 0 0 0 0 0 0 0 0 0 0
95 96 97 97 96 96 94 90 83 68 46 26 13 5 1 0 0 0 0 0 0 0 0 0 0 0 0 0 0 0 0 0 0 0 0 0 0 0 0 0 0 0 0
95 96 96 95 94 91 82 70 57 38 20 8 3 1 0 0 0 0 0 0 0 0 0 0 0 0 0 0 0 0 0 0 0 0 0 0 0 0 0 0 0 0 0
95 95 93 91 86 73 55 37 24 13 4 1 0 0 0 0 0 0 0 0 0 0 0 0 0 0 0 0 0 0 0 0 0 0 0 0 0 0 0 0 0 0 0
92 92 88 79 64 43 23 11 6 2 0 0 0 0 0 0 0 0 0 0 0 0 0 0 0 0 0 0 0 0 0 0 0 0 0 0 0 0 0 0 0 0 0
76 73 65 49 30 15 5 1 1 0 0 0 0 0 0 0 0 0 0 0 0 0 0 0 0 0 0 0 0 0 0 0 0 0 0 0 0 0 0 0 0 0 0
43 37 26 15 6 2 0 0 0 0 0 0 0 0 0 0 0 0 0 0 0 0 0 0 0 0 0 0 0 0 0 0 0 0 0 0 0 0 0 0 0 0 0
13 9 4 1 0 0 0 0 0 0 0 0 0 0 0 0 0 0 0 0 0 0 0 0 0 0 0 0 0 0 0 0 0 0 0 0 0 0 0 0 0 0 0
1 1 0 0 0 0 0 0 0 0 0 0 0 0 0 0 0 0 0 0 0 0 0 0 0 0 0 0 0 0 0 0 0 0 0 0 0 0 0 0 0 0 0
0 0 0 0 0 0 0 0 0 0 0 0 0 0 0 0 0 0 0 0 0 0 0 0 0 0 0 0 0 0 0 0 0 0 0 0 0 0 0 0 0 0 0
0 0 0 0 0 0 0 0 0 0 0 0 0 0 0 0 0 0 0 0 0 0 0 0 0 0 0 0 0 0 0 0 0 0 0 0 0 0 0 0 0 0 0
0 0 0 0 0 0 0 0 0 0 0 0 0 0 0 0 0 0 0 0 0 0 0 0 0 0 0 0 0 0 0 0 0 0 0 0 0 0 0 0 0 0 0
0 0 0 0 0 0 0 0 0 0 0 0 0 0 0 0 0 0 0 0 0 0 0 0 0 0 0 0 0 0 0 0 0 0 0 0 0 0 0 0 0 0 0
0 0 0 0 0 0 0 0 0 0 0 0 0 0 0 0 0 0 0 0 0 0 0 0 0 0 0 0 0 0 0 0 0 0 0 0 0 0 0 0 0 0 0
0 0 0 0 0 0 0 0 0 0 0 0 0 0 0 0 0 0 0 0 0 0 0 0 0 0 0 0 0 0 0 0 0 0 0 0 0 0 0 0 0 0 0
0 0 0 0 0 0 0 0 0 0 0 0 0 0 0 0 0 0 0 0 0 0 0 0 0 0 0 0 0 0 0 0 0 0 0 0 0 0 0 0 0 0 0
0 0 0 0 0 0 0 0 0 0 0 0 0 0 0 0 0 0 0 0 0 0 0 0 0 0 0 0 0 0 0 0 0 0 0 0 0 0 0 0 0 0 0
0 0 0 0 0 0 0 0 0 0 0 0 0 0 0 0 0 0 0 0 0 0 0 0 0 0 0 0 0 0 0 0 0 0 0 0 0 0 0 0 0 0 0
0 0 0 0 0 0 0 0 0 0 0 0 0 0 0 0 0 0 0 0 0 0 0 0 0 0 0 0 0 0 0 0 0 0 0 0 0 0 0 0 0 0 0
0 0 0 0 0 0 0 0 0 0 0 0 0 0 0 0 0 0 0 0 0 0 0 0 0 0 0 0 0 0 0 0 0 0 0 0 0 0 0 0 0 0 0
0 0 0 0 0 0 0 0 0 0 0 0 0 0 0 0 0 0 0 0 0 0 0 0 0 0 0 0 0 0 0 0 0 0 0 0 0 0 0 0 0 0 0
0 0 0 0 0 0 0 0 0 0 0 0 0 0 0 0 0 0 0 0 0 0 0 0 0 0 0 0 0 0 0 0 0 0 0 0 0 0 0 0 0 0 0
0 0 0 0 0 0 0 0 0 0 0 0 0 0 0 0 0 0 0 0 0 0 0 0 0 0 0 0 0 0 0 0 0 0 0 0 0 0 0 0 0 0 0
Wind_Speed
14 12 14 14 14 13 13 12 13 11 11 9 9 8 6 5 5 5 7 8 8 8 8 6 6 5 5 4 4 3 5 5 4 4 4 4 4 3 3 3 4 5 6
11 14 14 14 14 13 11 10 11 10 10 8 6 5 6 5 5 5 6 7 8 8 8 7 6 5 5 6 6 4 3 3 4 3 2 4 5 4 3 3 4 5 5
22 19 16 13 13 12 11 9 10 11 9 10 8 9 6 5 4 5 5 6 8 9 8 7 6 6 5 5 5 5 4 3 3 4 3 2 2 4 4 3 4 5 4
19 19 17 14 13 10 9 9 9 9 9 10 11 11 7 6 4 4 4 5 7 8 7 7 7 6 5 5 4 4 3 3 2 2 2 2 2 1 4 5 3 4 4
18 17 15 13 11 10 9 9 10 10 10 9 10 9 8 6 6 6 7 6 5 6 7 6 6 5 4 4 4 3 3 2 2 1 1 1 1 1 2 4 6 5 4
14 11 10 10 9 9 9 10 11 9 10 11 10 11 12 11 10 7 6 4 3 4 5 6 5 4 3 3 2 2 3 1 1 1 1 1 1 2 2 4 5 5 6
15 14 13 12 11 11 10 11 12 10 9 11 10 11 11 11 9 7 6 6 4 3 4 4 4 3 2 1 2 1 1 1 2 3 3 3 4 4 3 4 5 5 4
14 13 12 12 12 12 11 12 13 11 10 11 10 9 10 7 6 6 6 6 5 4 4 4 3 2 1 1 2 1 2 2 3 5 5 4 5 4 4 4 5 6 5
15 14 13 12 11 11 10 12 13 12 11 12 12 10 9 9 8 8 7 6 5 4 4 3 2 1 1 2 2 2 3 3 3 4 4 3 4 4 4 3 3 4 8
15 14 13 13 12 11 11 11 12 12 11 11 10 9 9 8 9 9 9 7 5 4 3 2 1 1 2 2 1 2 3 3 3 3 3 3 3 3 3 2 2 3 4
13 13 13 12 12 12 11 11 10 10 10 10 9 9 8 8 8 7 7 6 4 3 3 2 2 3 4 5 5 5 5 5 4 4 4 5 4 3 3 3 3 3 3
11 12 12 12 12 12 10 9 9 9 9 8 8 8 7 7 7 7 6 6 5 5 5 5 6 7 7 6 6 5 5 4 5 6 5 6 5 5 5 4 4 5 5
10 9 9 10 11 10 9 9 8 8 7 8 8 7 7 7 7 7 6 7 7 7 6 6 6 6 5 4 3 3 3 4 5 5 6 7 6 7 6 6 6 5 7
8 8 8 8 9 9 8 8 7 7 7 8 8 8 7 7 7 7 7 6 6 6 6 5 5 4 4 3 2 2 3 5 6 6 6 7 7 7 7 6 7 7 7
9 8 7 7 8 8 8 8 7 7 7 8 8 7 6 6 6 6 6 6 5 5 4 4 3 3 2 1 1 3 5 6 7 8 8 8 12 13 9 8 7 7 8
9 8 8 8 8 8 8 8 8 7 7 8 7 6 5 5 5 4 5 5 5 5 5 4 2 0 1 2 3 5 5 6 7 9 9 9 10 12 16 17 18 17 13
8 8 7 7 7 7 7 8 7 8 8 8 6 4 3 3 3 5 6 5 4 4 4 3 2 2 3 4 5 8 6 6 7 8 8 9 10 12 8 13 18 18 21
9 8 8 9 8 7 7 7 8 7 7 5 3 2 2 4 5 6 5 4 3 2 2 2 3 3 4 5 6 9 7 7 8 8 8 9 9 9 10 12 13 13 13
8 8 8 8 8 7 7 7 6 5 4 2 2 2 4 5 5 5 3 2 2 2 2 2 4 4 4 6 6 8 5 6 8 9 9 10 9 12 15 13 12 13 12
7 8 7 8 7 5 5 5 4 2 2 1 2 4 5 5 5 4 2 2 2 2 3 4 4 4 2 4 7 9 4 6 7 8 9 12 11 14 16 11 10 11 10
7 7 7 6 5 4 4 3 2 1 1 2 4 5 5 5 5 3 2 2 3 3 4 4 4 3 3 5 9 11 5 6 8 8 7 7 13 16 16 13 9 10 11
7 6 6 5 3 2 2 1 1 1 2 4 5 5 4 5 5 4 3 4 4 4 4 4 4 4 4 5 9 13 12 10 8 8 7 8 15 17 16 11 11 13 9
5 5 5 3 1 1 1 1 1 2 3 4 5 5 5 4 4 4 4 3 3 3 2 3 3 4 5 6 10 12 14 15 8 7 13 15 15 14 10 11 13 9 5
4 3 3 2 1 1 1 2 1 3 4 5 5 5 5 4 3 3 3 2 1 2 2 3 4 5 5 5 6 7 8 10 9 8 10 13 12 10 9 9 7 5 5
3 3 2 2 2 2 2 2 3 5 6 6 5 4 4 3 2 2 2 2 2 2 1 1 2 4 5 7 12 8 6 6 7 8 5 4 6 6 6 6 6 5 5
3 3 3 3 4 4 4 4 4 6 6 5 4 3 2 2 2 1 1 2 3 4 4 5 4 4 7 11 12 13 12 12 12 6 5 6 6 6 6 6 6 5 5
Wind_Direction
191 178 173 165 161 162 163 165 161 157 146 140 136 130 121 106 89 85 92 94 95 90 84 82 67 63 68 61 56 59 47 28 15 24 352 340 359 30 45 31 29 19 14
169 171 168 166 169 167 165 159 158 156 152 145 134 121 117 102 86 83 75 79 86 85 85 81 73 67 72 59 50 53 57 24 26 51 33 353 343 344 4 9 26 13 8
174 173 169 169 166 166 165 158 155 151 141 130 117 110 96 84 79 80 76 74 82 81 82 80 76 70 75 77 68 65 77 52 23 50 91 73 308 314 321 352 17 8 10
175 172 167 166 163 157 144 139 140 133 129 130 135 138 133 125 115 108 95 85 85 90 89 85 83 82 86 87 79 81 87 90 48 25 50 126 184 256 313 321 336 350 351
176 172 166 157 143 135 133 129 125 123 121 120 126 120 114 114 117 108 103 93 86 95 99 94 90 93 94 96 89 88 83 98 114 84 25 16 18 149 193 292 314 321 312
165 148 131 124 117 116 116 116 114 113 118 121 123 126 128 131 129 125 123 110 98 93 95 93 91 101 102 100 97 90 77 86 127 191 200 200 242 259 233 254 278 289 293
144 136 131 124 116 110 109 110 110 106 110 114 116 124 128 130 133 135 132 129 116 103 100 93 97 102 105 99 96 83 8 267 249 243 240 231 229 230 236 256 271 270 272
112 113 111 112 110 108 106 106 105 102 101 102 104 107 108 109 112 116 125 128 121 118 119 110 115 130 134 137 162 203 248 243 244 250 246 247 253 248 246 253 274 288 281
93 92 89 89 91 92 93 101 102 97 93 93 94 95 96 97 100 101 104 109 110 114 119 125 149 200 227 231 222 242 263 281 281 279 279 275 277 279 272 265 253 272 296
84 81 78 78 81 85 85 84 90 94 92 90 93 96 91 96 101 101 102 105 108 107 118 123 153 288 303 306 312 331 348 6 350 333 337 319 299 300 294 283 270 247 269
89 88 88 88 90 89 89 88 87 91 92 91 93 93 94 99 101 104 109 114 111 103 87 66 49 44 41 43 53 50 39 29 2 347 339 318 304 292 285 276 266 260 257
98 102 104 105 103 101 98 95 95 95 95 96 93 91 95 100 99 98 96 91 77 57 50 53 65 75 74 67 61 39 23 4 341 326 320 308 305 292 277 269 264 261 254
103 104 106 110 108 106 104 100 98 99 97 96 94 92 92 93 93 89 82 74 70 62 58 66 82 92 87 76 61 35 359 333 314 305 301 296 296 291 284 277 272 269 275
113 113 112 113 110 107 105 102 94 94 95 91 89 88 88 89 88 85 81 78 75 69 69 81 103 110 101 82 38 358 334 323 312 304 298 296 293 288 288 289 282 282 282
131 128 124 117 109 103 97 92 88 85 90 90 85 80 80 81 85 83 79 75 74 76 74 81 105 138 127 117 339 331 335 326 319 315 308 303 306 311 311 310 300 296 290
137 130 124 114 105 101 99 92 84 79 83 83 78 74 74 80 84 87 88 85 76 67 60 60 67 56 246 255 314 341 329 319 314 311 309 306 305 311 316 314 310 305 299
133 125 117 107 99 93 94 90 86 81 77 75 76 76 80 93 92 97 91 86 78 65 57 48 38 339 279 274 317 340 332 313 304 301 303 308 310 314 305 308 308 302 296
119 116 110 102 95 91 87 85 81 80 82 83 83 86 84 86 89 90 89 84 73 65 49 19 0 339 318 327 339 338 328 307 300 300 298 299 302 307 311 310 303 297 294
111 112 111 110 104 98 95 92 87 88 94 101 85 74 89 99 95 92 86 75 71 47 21 359 359 359 353 14 2 347 317 305 305 306 306 307 304 307 314 312 304 301 299
105 110 109 106 103 96 95 97 97 98 112 104 78 83 95 102 105 108 94 72 77 45 20 14 15 27 27 13 353 347 317 312 313 310 308 309 308 312 316 315 307 305 308
109 108 106 103 102 99 96 95 106 160 167 101 99 98 101 107 109 98 76 61 53 41 30 23 9 4 343 331 338 341 333 318 312 309 310 309 312 316 318 318 311 312 314
113 109 107 104 105 110 106 97 252 229 122 110 107 105 103 102 101 96 74 56 54 46 24 7 349 329 318 325 333 334 330 324 311 306 308 310 315 319 320 320 320 324 326
121 116 117 115 123 185 153 156 240 160 127 116 117 112 100 90 100 106 93 63 49 40 8 355 338 325 326 328 334 331 327 327 323 308 312 318 321 324 322 320 326 331 333
131 126 124 139 198 223 199 206 180 121 115 120 123 120 112 104 100 108 116 103 68 38 2 346 332 323 322 325 332 327 322 324 325 319 316 319 324 328 324 323 328 328 324
143 148 159 157 162 131 116 103 92 98 104 115 127 131 135 141 140 142 165 161 193 193 207 277 294 311 317 317 321 321 318 319 317 318 317 327 330 332 333 334 333 332 337
159 153 144 127 117 107 97 92 95 101 110 117 133 148 155 165 172 187 273 261 225 236 243 260 279 289 294 315 329 339 341 343 341 342 336 334 333 335 337 341 340 335 338